sat.trackr.live / text

‹ back to catalog

STARLINK-6083

NORAD 56109 · 2023-046S

PAYLOAD ACTIVE UNKNOWN

§ Identity

Operator
Country
US
Launch date
2023-03-29
Launch site
AFETR
Launch vehicle
Mass (kg)
RCS (m²)

Purposes: comms

External: N2YO · Heavens-Above · Gunter

§ Orbital elements

Epoch: 2026-09-19T22:07:26.080032Z

Period
94.27 min
Inclination
43.0037°
Eccentricity
0.0001216
Mean motion
15.27574254 rev/d
Perigee alt
482.2 km
Apogee alt
483.9 km
Semi-major
6,861.2 km
B*
-6.5427e-6
RAAN
144.9026°
Arg perigee
262.5868°
Mean anomaly
97.4845°
Rev number
19,173

§ Raw data

STARLINK-60831 56109U 23046S   26262.92182963 -.00000442  00000+0 -65427-5 0  99942 56109  43.0037 144.9026 0001216 262.5868  97.4845 15.27574254191733

JSON: /api/v1/satellites/56109 · /tle

For live sub-satellite position, see the globe view (requires WebGL).

§ Visibility from observer

Set your observer location to see the next 7 days of passes ≥ 10°. The values pass through the URL so the page stays shareable.

No JS? Fill the form by hand. The geolocation button needs JavaScript.